Gdansk Airport, Poland

1:08 PM CEST on May 29, 2017 (GMT +0200)
Rebiechowo

Weather History for EPGD - March, 2014

Change the Weather History Date:

Tuesday, March 4, 2014

  Actual Average Record
Temperature  
Mean Temperature 38 °F -  
Max Temperature 44 °F 41 °F 57 °F (1998)
Min Temperature 32 °F 27 °F 6 °F (2005)
Degree Days  
Heating Degree Days 27    
Moisture  
Dew Point 32 °F    
Average Humidity 83    
Maximum Humidity 100    
Minimum Humidity 61    
Precipitation  
Precipitation 0.00 in - - ()
Sea Level Pressure  
Sea Level Pressure 29.79 in    
Wind  
Wind Speed 10 mph ()    
Max Wind Speed 16 mph    
Max Gust Speed -    
Visibility 6.2 miles    
Events      
Averages and records for this station are not official NWS values.
T = Trace of Precipitation, MM = Missing Value Source: Averaged Metar Reports

Daily Weather History Graph

Daily Weather History Graph

Search for Another Location

Airport or City:

Trip Planner

Search our weather history database for the weather conditions in past years. The results will help you decide how hot, cold, wet, or windy it might be!

Date:

Astronomy

Mar. 04, 2014 Rise Set
Actual Time 6:28 AM CET 5:28 PM CET
Civil Twilight 5:52 AM CET 6:03 PM CET
Nautical Twilight 5:11 AM CET 6:45 PM CET
Astronomical Twilight 4:29 AM CET 7:27 PM CET
Moon 7:28 AM CET (3/4) 9:57 PM CET (3/4)
Length of Visible Light 12h 11m
Length of Day
10h 59m
Waxing Crescent, 13% of the Moon is Illuminated
Mar 4
Waxing Crescent
Mar 8
First Quarter
Mar 16
Full
Mar 24
Last Quarter
Mar 30
New

Hourly Weather History & Observations

Time (CET) Temp. Windchill Dew Point Humidity Pressure Visibility Wind Dir Wind Speed Gust Speed Precip Events Conditions
12:00 AM 35.6 °F 28.0 °F 33.8 °F 93% 29.68 in - ESE 10.4 mph - N/A   Clear
12:30 AM 33.8 °F 27.0 °F 32.0 °F 93% 29.71 in - ESE 8.1 mph - N/A   Clear
1:00 AM 35.6 °F 29.2 °F 32.0 °F 87% 29.71 in - SE 8.1 mph - N/A   Clear
1:30 AM 35.6 °F 29.2 °F 32.0 °F 87% 29.71 in - SE 8.1 mph - N/A   Clear
2:00 AM 33.8 °F 26.4 °F 32.0 °F 93% 29.68 in - ESE 9.2 mph - N/A   Clear
2:30 AM 33.8 °F 25.8 °F 32.0 °F 93% 29.71 in - ESE 10.4 mph - N/A   Clear
3:00 AM 33.8 °F 25.8 °F 32.0 °F 93% 29.71 in - ESE 10.4 mph - N/A   Clear
3:30 AM 33.8 °F 25.8 °F 32.0 °F 93% 29.71 in - ESE 10.4 mph - N/A   Clear
4:00 AM 32.0 °F 23.6 °F 32.0 °F 100% 29.71 in - ESE 10.4 mph - N/A   Clear
4:30 AM 32.0 °F 23.0 °F 30.2 °F 93% 29.71 in - ESE 11.5 mph - N/A   Clear
5:00 AM 32.0 °F 23.0 °F 32.0 °F 100% 29.71 in - ESE 11.5 mph - N/A   Clear
5:30 AM 32.0 °F 23.6 °F 30.2 °F 93% 29.71 in - ESE 10.4 mph - N/A   Clear
6:00 AM 32.0 °F 23.0 °F 30.2 °F 93% 29.74 in - ESE 11.5 mph - N/A   Clear
6:30 AM 32.0 °F 23.0 °F 30.2 °F 93% 29.74 in - ESE 11.5 mph - N/A   Clear
7:00 AM 32.0 °F 23.6 °F 30.2 °F 93% 29.74 in - ESE 10.4 mph - N/A   Clear
7:30 AM 32.0 °F 24.2 °F 30.2 °F 93% 29.74 in - ESE 9.2 mph - N/A   Clear
8:00 AM 32.0 °F 24.2 °F 32.0 °F 100% 29.77 in - ESE 9.2 mph - N/A   Clear
8:30 AM 33.8 °F 26.4 °F 32.0 °F 93% 29.77 in - SE 9.2 mph - N/A   Clear
9:00 AM 33.8 °F 25.8 °F 32.0 °F 93% 29.77 in - ESE 10.4 mph - N/A   Clear
9:30 AM 35.6 °F 28.6 °F 32.0 °F 87% 29.77 in - ESE 9.2 mph - N/A   Clear
10:00 AM 37.4 °F 30.3 °F 33.8 °F 87% 29.80 in - SE 10.4 mph - N/A   Clear
10:30 AM 39.2 °F 32.5 °F 33.8 °F 81% 29.80 in - SE 10.4 mph - N/A   Clear
11:00 AM 39.2 °F 32.5 °F 33.8 °F 81% 29.80 in - SE 10.4 mph - N/A   Clear
11:30 AM 41.0 °F 33.9 °F 33.8 °F 76% 29.80 in - ESE 12.7 mph - N/A   Clear
12:00 PM 42.8 °F 36.6 °F 33.8 °F 70% 29.80 in - ESE 11.5 mph - N/A   Clear
12:30 PM 44.6 °F 38.4 °F 33.8 °F 66% 29.80 in - ESE 12.7 mph - N/A   Clear
1:00 PM 44.6 °F 37.8 °F 33.8 °F 66% 29.80 in 6.2 mi ESE 15.0 mph - N/A   Partly Cloudy
1:30 PM 44.6 °F 38.8 °F 33.8 °F 66% 29.80 in 6.2 mi SE 11.5 mph - N/A   Partly Cloudy
2:00 PM 44.6 °F 37.8 °F 33.8 °F 66% 29.80 in 6.2 mi ESE 15.0 mph - N/A   Partly Cloudy
2:30 PM 44.6 °F 38.4 °F 32.0 °F 61% 29.80 in 6.2 mi SE 12.7 mph - N/A   Partly Cloudy
3:00 PM 44.6 °F 38.4 °F 33.8 °F 66% 29.80 in 6.2 mi ESE 12.7 mph - N/A   Partly Cloudy
3:30 PM 44.6 °F 38.4 °F 33.8 °F 66% 29.80 in 6.2 mi ESE 12.7 mph - N/A   Partly Cloudy
4:00 PM 42.8 °F 36.2 °F 33.8 °F 70% 29.80 in 6.2 mi ESE 12.7 mph - N/A   Partly Cloudy
4:30 PM 41.0 °F 33.9 °F 33.8 °F 76% 29.80 in - ESE 12.7 mph - N/A   Clear
5:00 PM 41.0 °F 32.8 °F 33.8 °F 76% 29.83 in - ESE 16.1 mph - N/A   Clear
5:30 PM 39.2 °F 32.0 °F 33.8 °F 81% 29.83 in - ESE 11.5 mph - N/A   Clear
6:00 PM 37.4 °F 28.2 °F 32.0 °F 81% 29.83 in - ESE 16.1 mph - N/A   Clear
6:30 PM 35.6 °F 26.6 °F 32.0 °F 87% 29.86 in - ESE 13.8 mph - N/A   Clear
7:00 PM 35.6 °F 26.6 °F 32.0 °F 87% 29.86 in - ESE 13.8 mph - N/A   Clear
7:30 PM 35.6 °F 28.0 °F 30.2 °F 81% 29.86 in - ESE 10.4 mph - N/A   Clear
8:00 PM 35.6 °F 28.0 °F 30.2 °F 81% 29.86 in 6.2 mi SE 10.4 mph - N/A   Scattered Clouds
8:30 PM 35.6 °F 28.6 °F 30.2 °F 81% 29.89 in 6.2 mi SE 9.2 mph - N/A   Mostly Cloudy
9:00 PM 35.6 °F 29.2 °F 30.2 °F 81% 29.89 in 6.2 mi SE 8.1 mph - N/A   Mostly Cloudy
9:30 PM 35.6 °F 29.9 °F 30.2 °F 81% 29.89 in 6.2 mi SE 6.9 mph - N/A   Mostly Cloudy
10:00 PM 35.6 °F 29.9 °F 30.2 °F 81% 29.89 in 6.2 mi ESE 6.9 mph - N/A   Mostly Cloudy
10:30 PM 35.6 °F 29.2 °F 30.2 °F 81% 29.89 in 6.2 mi ESE 8.1 mph - N/A   Mostly Cloudy
11:00 PM 35.6 °F 28.0 °F 30.2 °F 81% 29.89 in 6.2 mi ESE 10.4 mph - N/A   Mostly Cloudy
11:30 PM 35.6 °F 28.6 °F 30.2 °F 81% 29.89 in 6.2 mi ESE 9.2 mph - N/A   Mostly Cloudy